This demonstration page uses our WeatherBlox Daily Observations layout. Learn more.

Left ArrowRight Arrow

41.12389, -100.76542

Hourly Observations for September 24, 2020

Temp ( °F °C ) Dew Point ( °F °C ) Humidity (%) Winds ( mph kmh ) Pressure ( in mb ) Visibility ( mi km ) Precip ( " mm )
12:53 am 00:53 Clear 54 12.2 45 7.2 72 72 NNW 3 6 29.85 1011 10 16 0.00 0.00
1:53 am 01:53 Clear 52 11.1 44 6.7 75 75 NW 5 7 29.85 1011 10 16 0.00 0.00
2:53 am 02:53 Clear 52 11.1 45 7.2 77 77 NW 7 11 29.85 1011 10 16 0.00 0.00
3:53 am 03:53 Clear 50 10 44 6.7 80 80 NW 6 9 29.84 1010 10 16 0.00 0.00
4:53 am 04:53 Clear 50 10 44 6.7 80 80 N 9 15 29.84 1011 10 16 0.00 0.00
5:53 am 05:53 Clear 49 9.4 43 6.1 80 80 NNW 3 6 29.85 1011 10 16 0.00 0.00
6:53 am 06:53 Clear 47 8.3 41 5 80 80 WNW 3 6 29.87 1012 10 16 0.00 0.00
7:53 am 07:53 Sunny 47 8.3 42 5.6 83 83 Calm 29.90 1013 10 16 0.00 0.00
8:53 am 08:53 Sunny 54 12.2 46 7.8 75 75 NW 5 7 29.91 1013 10 16 0.00 0.00
9:53 am 09:53 Sunny 62 16.7 51 10.6 67 67 NW 5 7 29.90 1013 10 16 0.00 0.00
10:53 am 10:53 Sunny 71 21.7 54 12.2 55 55 NW 7 11 29.90 1013 10 16 0.00 0.00
11:53 am 11:53 Sunny 79 26.1 55 12.8 44 44 SSW 5 7 29.87 1012 10 16 0.00 0.00
12:53 pm 12:53 Sunny 84 28.9 55 12.8 37 37 S 6 9 29.85 1011 10 16 0.00 0.00
1:53 pm 13:53 Sunny 86 30 55 12.8 35 35 SSW 3 6 29.83 1010 10 16 0.00 0.00
2:53 pm 14:53 Sunny 88 31.1 50 10 27 27 WSW 3 6 29.80 1009 10 16 0.00 0.00
3:53 pm 15:53 Sunny 89 31.7 43 6.1 20 20 Calm 29.79 1009 10 16 0.00 0.00
4:53 pm 16:53 Sunny 90 32.2 46 7.8 22 22 SSE 5 7 29.77 1008 10 16 0.00 0.00
5:53 pm 17:53 Sunny 87 30.6 50 10 28 28 ESE 9 15 29.77 1008 10 16 0.00 0.00
6:53 pm 18:53 Sunny 81 27.2 52 11.1 37 37 ESE 9 15 29.77 1008 10 16 0.00 0.00
7:53 pm 19:53 Clear 69 20.6 54 12.2 59 59 ESE 8 13 29.78 1009 10 16 0.00 0.00
8:53 pm 20:53 Clear 64 17.8 53 11.7 68 68 ESE 8 13 29.78 1009 10 16 0.00 0.00
9:53 pm 21:53 Clear 62 16.7 52 11.1 70 70 ESE 9 15 29.77 1008 10 16 0.00 0.00
10:53 pm 22:53 Clear 62 16.7 52 11.1 70 70 E 9 15 29.75 1008 10 16 0.00 0.00
11:53 pm 23:53 Clear 58 14.4 51 10.6 78 78 ESE 8 13 29.74 1007 10 16 0.00 0.00

Powered by AerisWeather